• In Netherlands
  • List of Countries
  • For 7 days
  • Water Temperature
  • Satellite Maps
  • Weather Map
  • Weather Widgets
  • user-avatar
    Login

    Hourly Weather Zamoste

    Today, 25 September, Tuesday

    Time Temperature Precipitation Wind Pressure Humidity
    00:00 +5°C° 0 mm 6 mps 735 mmHg 91%
    01:00 +5°C° 0 mm 6 mps 736 mmHg 91%
    02:00 +6°C° 0 mm 5 mps 737 mmHg 90%
    03:00 +5°C° 0 mm 5 mps 738 mmHg 91%
    04:00 +5°C° 0 mm 5 mps 738 mmHg 92%
    05:00 +3°C° 0 mm 6 mps 739 mmHg 92%
    06:00 +3°C° 0 mm 6 mps 739 mmHg 91%
    07:00 +3°C° 0 mm 6 mps 740 mmHg 89%
    08:00 +3°C° 0 mm 6 mps 741 mmHg 88%
    09:00 +4°C° 0 mm 6 mps 741 mmHg 86%
    10:00 +4°C° 0 mm 6 mps 742 mmHg 84%
    11:00 +4°C° 0 mm 6 mps 742 mmHg 82%
    12:00 +5°C° 0.1 mm 6 mps 743 mmHg 78%
    13:00 +5°C° 0.1 mm 6 mps 743 mmHg 75%
    14:00 +7°C° 0.1 mm 6 mps 744 mmHg 72%
    15:00 +7°C° 0.1 mm 5 mps 744 mmHg 72%
    16:00 +7°C° 0.1 mm 5 mps 745 mmHg 71%
    17:00 +6°C° 0.1 mm 4 mps 745 mmHg 71%
    18:00 +6°C° 0 mm 4 mps 746 mmHg 73%
    19:00 +5°C° 0 mm 4 mps 746 mmHg 75%
    20:00 +4°C° 0 mm 4 mps 747 mmHg 76%
    21:00 +3°C° 0 mm 4 mps 748 mmHg 77%
    22:00 +3°C° 0 mm 4 mps 748 mmHg 78%
    23:00 +3°C° 0 mm 4 mps 749 mmHg 78%

    Tomorrow, 26 September, Wednesday

    Time Temperature Precipitation Wind Pressure Humidity
    00:00 +1°C° 0 mm 4 mps 750 mmHg 78%
    01:00 +1°C° 0 mm 4 mps 750 mmHg 78%
    02:00 0°C° 0 mm 4 mps 751 mmHg 78%
    03:00 +1°C° 0 mm 3 mps 751 mmHg 80%
    04:00 +1°C° 0 mm 3 mps 751 mmHg 83%
    05:00 +1°C° 0 mm 3 mps 752 mmHg 86%
    06:00 +1°C° 0 mm 4 mps 752 mmHg 84%
    07:00 +3°C° 0 mm 4 mps 752 mmHg 83%
    08:00 +4°C° 0 mm 4 mps 753 mmHg 81%
    09:00 +5°C° 0 mm 4 mps 753 mmHg 72%
    10:00 +7°C° 0 mm 5 mps 752 mmHg 63%
    11:00 +9°C° 0 mm 5 mps 752 mmHg 54%
    12:00 +9°C° 0 mm 5 mps 752 mmHg 53%
    13:00 +10°C° 0 mm 6 mps 751 mmHg 52%
    14:00 +10°C° 0 mm 6 mps 751 mmHg 50%
    15:00 +10°C° 0 mm 6 mps 750 mmHg 54%
    16:00 +9°C° 0 mm 6 mps 750 mmHg 57%
    17:00 +8°C° 0 mm 6 mps 749 mmHg 60%
    18:00 +7°C° 0.2 mm 6 mps 748 mmHg 65%
    19:00 +6°C° 0.2 mm 7 mps 748 mmHg 69%
    20:00 +5°C° 0.2 mm 7 mps 747 mmHg 73%
    21:00 +5°C° 0.4 mm 8 mps 746 mmHg 76%
    22:00 +5°C° 0.4 mm 8 mps 745 mmHg 80%
    23:00 +5°C° 0.4 mm 9 mps 744 mmHg 83%

    Day after tomorrow, 27 September, Thursday

    Time Temperature Precipitation Wind Pressure Humidity
    00:00 +5°C° 0.5 mm 9 mps 743 mmHg 84%
    01:00 +5°C° 0.5 mm 9 mps 742 mmHg 86%
    02:00 +5°C° 0.5 mm 9 mps 741 mmHg 87%
    03:00 +5°C° 0.5 mm 9 mps 741 mmHg 88%
    04:00 +6°C° 0.5 mm 9 mps 740 mmHg 89%
    05:00 +6°C° 0.5 mm 9 mps 739 mmHg 89%
    06:00 +7°C° 0.2 mm 9 mps 739 mmHg 89%
    07:00 +7°C° 0.2 mm 9 mps 739 mmHg 90%
    08:00 +9°C° 0.2 mm 8 mps 739 mmHg 90%
    09:00 +9°C° 0.4 mm 8 mps 739 mmHg 90%
    10:00 +10°C° 0.4 mm 7 mps 739 mmHg 89%
    11:00 +10°C° 0.4 mm 6 mps 740 mmHg 89%
    12:00 +11°C° 0.2 mm 6 mps 740 mmHg 83%
    13:00 +13°C° 0.2 mm 6 mps 740 mmHg 77%
    14:00 +14°C° 0.2 mm 6 mps 740 mmHg 70%
    15:00 +13°C° 0 mm 5 mps 741 mmHg 72%
    16:00 +13°C° 0 mm 4 mps 741 mmHg 73%
    17:00 +12°C° 0 mm 4 mps 741 mmHg 75%
    18:00 +11°C° 0 mm 3 mps 742 mmHg 78%
    19:00 +9°C° 0 mm 3 mps 742 mmHg 82%
    20:00 +8°C° 0 mm 3 mps 742 mmHg 85%
    21:00 +8°C° 0 mm 3 mps 743 mmHg 87%
    22:00 +8°C° 0 mm 3 mps 743 mmHg 89%
    23:00 +7°C° 0 mm 3 mps 743 mmHg 90%

    28 September, Friday

    Time Temperature Precipitation Wind Pressure Humidity
    00:00 +7°C° 0 mm 3 mps 743 mmHg 92%
    01:00 +7°C° 0 mm 3 mps 743 mmHg 93%
    02:00 +7°C° 0 mm 3 mps 742 mmHg 94%
    03:00 +7°C° 0 mm 4 mps 742 mmHg 95%
    04:00 +8°C° 0 mm 5 mps 741 mmHg 95%
    05:00 +9°C° 0 mm 5 mps 740 mmHg 95%
    06:00 +10°C° 0 mm 6 mps 739 mmHg 92%
    07:00 +11°C° 0 mm 8 mps 739 mmHg 89%
    08:00 +12°C° 0 mm 9 mps 738 mmHg 85%
    09:00 +12°C° 0.2 mm 9 mps 738 mmHg 85%
    10:00 +12°C° 0.2 mm 9 mps 737 mmHg 85%
    11:00 +13°C° 0.2 mm 9 mps 737 mmHg 84%
    12:00 +13°C° 0.4 mm 9 mps 737 mmHg 84%
    13:00 +13°C° 0.4 mm 9 mps 737 mmHg 84%
    14:00 +13°C° 0.4 mm 8 mps 737 mmHg 84%
    15:00 +12°C° 0.1 mm 8 mps 737 mmHg 81%
    16:00 +11°C° 0.1 mm 7 mps 738 mmHg 78%
    17:00 +10°C° 0.1 mm 6 mps 739 mmHg 76%
    18:00 +9°C° 0 mm 6 mps 740 mmHg 79%
    19:00 +7°C° 0 mm 5 mps 741 mmHg 82%
    20:00 +5°C° 0 mm 4 mps 742 mmHg 86%
    21:00 +4°C° 0 mm 4 mps 743 mmHg 88%
    22:00 +3°C° 0 mm 3 mps 743 mmHg 89%
    23:00 +3°C° 0 mm 2 mps 744 mmHg 91%

    29 September, Saturday

    Time Temperature Precipitation Wind Pressure Humidity
    00:00 +3°C° 0 mm 2 mps 744 mmHg 92%
    01:00 +4°C° 0 mm 1 mps 744 mmHg 92%
    02:00 +4°C° 0 mm 1 mps 745 mmHg 93%
    03:00 +4°C° 0 mm 1 mps 745 mmHg 91%
    04:00 +4°C° 0 mm 1 mps 745 mmHg 90%
    05:00 +4°C° 0 mm 1 mps 746 mmHg 89%
    06:00 +4°C° 0 mm 1 mps 746 mmHg 85%
    07:00 +5°C° 0 mm 1 mps 746 mmHg 81%
    08:00 +6°C° 0 mm 1 mps 747 mmHg 78%
    09:00 +7°C° 0 mm 1 mps 747 mmHg 71%
    10:00 +9°C° 0 mm 1 mps 748 mmHg 64%
    11:00 +10°C° 0 mm 1 mps 748 mmHg 57%
    12:00 +10°C° 0 mm 1 mps 748 mmHg 57%
    13:00 +10°C° 0 mm 2 mps 748 mmHg 57%
    14:00 +10°C° 0 mm 2 mps 748 mmHg 57%
    15:00 +10°C° 0 mm 2 mps 748 mmHg 62%
    16:00 +9°C° 0 mm 2 mps 749 mmHg 68%
    17:00 +9°C° 0 mm 1 mps 749 mmHg 73%
    18:00 +8°C° 0 mm 1 mps 749 mmHg 76%
    19:00 +7°C° 0 mm 1 mps 750 mmHg 80%
    20:00 +6°C° 0 mm 1 mps 750 mmHg 83%
    21:00 +5°C° 0 mm 1 mps 750 mmHg 84%
    22:00 +5°C° 0 mm 1 mps 750 mmHg 85%
    23:00 +4°C° 0 mm 1 mps 751 mmHg 87%

    30 September, Sunday

    Time Temperature Precipitation Wind Pressure Humidity
    00:00 +4°C° 0 mm 1 mps 751 mmHg 87%
    01:00 +3°C° 0 mm 0 mps 751 mmHg 87%
    02:00 +2°C° 0 mm 0 mps 751 mmHg 88%
    03:00 +2°C° 0 mm 0 mps 751 mmHg 88%
    04:00 +3°C° 0 mm 1 mps 751 mmHg 88%
    05:00 +3°C° 0 mm 1 mps 751 mmHg 89%
    06:00 +4°C° 0 mm 1 mps 751 mmHg 86%
    07:00 +4°C° 0 mm 2 mps 751 mmHg 84%
    08:00 +5°C° 0 mm 2 mps 751 mmHg 81%
    09:00 +6°C° 0 mm 2 mps 751 mmHg 75%
    10:00 +8°C° 0 mm 3 mps 751 mmHg 69%
    11:00 +10°C° 0 mm 3 mps 751 mmHg 62%
    12:00 +10°C° 0 mm 3 mps 750 mmHg 61%
    13:00 +11°C° 0 mm 4 mps 750 mmHg 59%
    14:00 +12°C° 0 mm 4 mps 749 mmHg 58%
    15:00 +11°C° 0 mm 3 mps 749 mmHg 63%
    16:00 +10°C° 0 mm 3 mps 748 mmHg 68%
    17:00 +9°C° 0 mm 2 mps 748 mmHg 73%
    18:00 +8°C° 0 mm 2 mps 748 mmHg 76%
    19:00 +8°C° 0 mm 2 mps 748 mmHg 79%
    20:00 +7°C° 0 mm 3 mps 748 mmHg 82%
    21:00 +7°C° 0 mm 3 mps 748 mmHg 82%
    22:00 +7°C° 0 mm 3 mps 747 mmHg 82%
    23:00 +5°C° 0 mm 3 mps 747 mmHg 82%
    Show more